FW1418 Weather Reports


Display with metric or nautical units.
time (UTC)temp
F
wind
direction
speed
MPH
gust
MPH
rain 1hr
in
rain 24hr
in
rain mn
in
humidity
%
barometer
mb
20260506011553 42 44 2.0 5.0 0.00 0.00 0.00 74 1009.4
20260506010044 42 323 2.0 5.0 0.00 0.01 0.00 74 1009.1
20260506004618 43 355 1.0 9.0 0.00 0.01 0.00 72 1008.8
20260506003042 46 313 6.0 21.0 0.00 0.01 0.00 66 1008.8
20260506001540 49 232 2.0 7.0 0.00 0.01 0.00 51 1008.3
20260506000041 50 316 3.0 9.0 0.00 0.01 0.00 47 1008.1
20260505234604 51 246 2.0 10.0 0.00 0.01 0.00 43 1007.8
20260505233036 53 231 2.0 11.0 0.00 0.01 0.00 40 1007.8
20260505231536 54 196 0.0 10.0 0.00 0.01 0.00 39 1007.6
20260505230035 53 313 5.0 13.0 0.00 0.03 0.00 38 1007.7
20260505224535 54 291 5.0 12.0 0.00 0.03 0.00 38 1007.7
20260505223037 54 202 3.0 10.0 0.00 0.03 0.00 39 1007.7
20260505221533 54 224 3.0 17.0 0.00 0.03 0.00 41 1007.8
20260505220032 54 144 5.0 14.0 0.00 0.03 0.00 42 1007.7
20260505214538 54 232 2.0 16.0 0.00 0.03 0.00 42 1007.6
20260505213030 55 223 5.0 13.0 0.00 0.03 0.00 41 1007.6
20260505211529 54 215 6.0 15.0 0.00 0.03 0.00 43 1007.7
20260505210030 54 181 2.0 12.0 0.00 0.03 0.00 44 1007.6
20260505204529 54 269 10.0 21.0 0.00 0.03 0.00 43 1007.8
20260505203025 53 238 3.0 15.0 0.00 0.03 0.00 46 1007.7
20260505201527 53 239 7.0 13.0 0.00 0.03 0.00 44 1007.7
20260505200025 53 288 7.0 20.0 0.00 0.03 0.00 45 1007.5
20260505194521 52 261 8.0 27.0 0.00 0.03 0.00 47 1007.4
20260505193020 52 320 7.0 19.0 0.00 0.03 0.00 46 1007.4
20260505191521 52 202 6.0 25.0 0.00 0.03 0.00 46 1007.7
20260505190022 51 267 12.0 25.0 0.00 0.03 0.00 46 1007.5
20260505184524 52 240 6.0 18.0 0.00 0.03 0.00 47 1007.5
20260505183037 53 269 10.0 23.0 0.00 0.03 0.00 45 1007.4
20260505181514 52 190 7.0 20.0 0.00 0.03 0.00 46 1007.1
20260505180012 51 302 10.0 20.0 0.00 0.03 0.00 48 1006.7
20260505174511 51 233 7.0 16.0 0.00 0.03 0.00 48 1006.6
20260505173019 51 237 5.0 21.0 0.00 0.03 0.00 49 1006.5
20260505171509 51 188 10.0 17.0 0.00 0.03 0.00 48 1006.4
20260505170010 51 282 3.0 14.0 0.00 0.03 0.00 52 1006.3
20260505164506 49 298 7.0 18.0 0.00 0.03 0.00 52 1006.4
20260505163005 50 291 7.0 23.0 0.00 0.03 0.00 54 1006.4
20260505161504 49 296 9.0 18.0 0.00 0.03 0.00 53 1006.3
20260505153100 48 239 8.0 24.0 0.00 0.03 0.00 55 1006.6
20260505151606 48 317 7.0 17.0 0.00 0.03 0.00 55 1006.7
20260505124548 45 253 0.0 10.0 0.00 0.03 0.00 68 1004.7
20260505123041 44 237 1.0 10.0 0.00 0.03 0.00 71 1004.7
20260505121542 43 248 0.0 5.0 0.00 0.03 0.00 74 1004.6
20260505120048 43 192 1.0 5.0 0.00 0.03 0.00 75 1004.5
20260505114540 42 241 0.0 5.0 0.00 0.03 0.00 76 1004.3
20260505113036 42 237 0.0 2.0 0.00 0.03 0.00 76 1004.1
20260505111535 41 237 1.0 3.0 0.00 0.03 0.00 75 1003.9
20260505101528 40 243 1.0 2.0 0.00 0.03 0.00 74 1002.9
20260505100026 40 230 1.0 3.0 0.00 0.03 0.00 73 1002.9
20260505094528 42 296 2.0 5.0 0.00 0.03 0.00 71 1002.7
20260505093019 42 294 0.0 4.0 0.00 0.03 0.00 70 1002.6
20260505091517 42 318 3.0 10.0 0.00 0.03 0.00 68 1002.4
20260505090017 42 302 1.0 4.0 0.00 0.04 0.00 71 1002.3
20260505084526 42 333 1.0 4.0 0.00 0.04 0.00 72 1002.3
20260505083014 43 333 0.0 4.0 0.00 0.04 0.00 75 1002.1
20260505081508 44 333 0.0 2.0 0.00 0.04 0.00 70 1001.9
20260505080005 45 333 0.0 6.0 0.00 0.04 0.00 67 1001.7
20260505074501 46 332 2.0 8.0 0.00 0.04 0.00 65 1001.7
20260505073104 46 5 2.0 8.0 0.00 0.04 0.00 64 1001.7
20260505071557 47 293 4.0 10.0 0.00 0.04 0.00 64 1001.5
20260505070056 46 324 2.0 5.0 0.00 0.04 0.00 69 1001.4
20260505064552 46 23 1.0 3.0 0.00 0.04 0.00 68 1001.4
20260505063110 47 23 2.0 5.0 0.00 0.04 0.00 69 1001.4
20260505061548 47 333 2.0 6.0 0.00 0.04 0.00 68 1001.4
20260505060046 47 24 1.0 6.0 0.00 0.04 0.00 67 1001.1
20260505054547 47 36 1.0 6.0 0.00 0.04 0.00 68 1001.2
20260505053053 48 64 3.0 10.0 0.00 0.04 0.00 69 1000.9
20260505051541 48 58 2.0 9.0 0.00 0.04 0.00 70 1000.7
20260505041548 48 24 4.0 9.0 0.00 0.04 0.00 75 999.1
20260505040038 48 53 4.0 11.0 0.00 0.04 0.04 77 999.2
20260505034531 48 49 5.0 12.0 0.00 0.04 0.04 78 999.0
20260505033028 48 41 3.0 9.0 0.00 0.04 0.04 83 998.4
20260505031538 48 102 4.0 12.0 0.00 0.04 0.04 83 998.3
20260505030027 48 360 6.0 16.0 0.00 0.04 0.04 79 998.1
20260505024527 49 327 7.0 17.0 0.00 0.04 0.04 76 997.6
20260505023026 49 59 5.0 13.0 0.00 0.04 0.04 79 997.4
20260505021526 50 55 6.0 12.0 0.00 0.04 0.04 79 997.2
20260505020025 50 77 3.0 11.0 0.00 0.04 0.04 79 996.9
20260505014533 50 274 5.0 14.0 0.00 0.04 0.04 77 996.6
20260505013024 51 315 2.0 10.0 0.00 0.04 0.04 77 996.2